owner,sensor,date,latitude,longitude,vertical_datum,sea_water_practical_salinity,qcFlag 
NERRS,ioos:station:NOAA.NERRS:rkblhwq:1,2012-09-01T00:45:00Z,26.0257,-81.7332,0.0,23.6,1111122 
NERRS,ioos:station:NOAA.NERRS:rkblhwq:1,2012-09-01T01:45:00Z,26.0257,-81.7332,0.0,21.7,1111122 
NERRS,ioos:station:NOAA.NERRS:rkblhwq:1,2012-09-01T02:45:00Z,26.0257,-81.7332,0.0,23.6,1111122 
NERRS,ioos:station:NOAA.NERRS:rkblhwq:1,2012-09-01T03:45:00Z,26.0257,-81.7332,0.0,24.1,1111122 
NERRS,ioos:station:NOAA.NERRS:rkblhwq:1,2012-09-01T04:45:00Z,26.0257,-81.7332,0.0,25.2,1111122 
NERRS,ioos:station:NOAA.NERRS:rkblhwq:1,2012-09-01T05:45:00Z,26.0257,-81.7332,0.0,25.9,1111122 
NERRS,ioos:station:NOAA.NERRS:rkblhwq:1,2012-09-01T06:45:00Z,26.0257,-81.7332,0.0,26.7,1111122 
NERRS,ioos:station:NOAA.NERRS:rkblhwq:1,2012-09-01T07:45:00Z,26.0257,-81.7332,0.0,26.1,1111122 
NERRS,ioos:station:NOAA.NERRS:rkblhwq:1,2012-09-01T08:45:00Z,26.0257,-81.7332,0.0,26.4,1111122 
NERRS,ioos:station:NOAA.NERRS:rkblhwq:1,2012-09-01T09:45:00Z,26.0257,-81.7332,0.0,26.1,1111122 
NERRS,ioos:station:NOAA.NERRS:rkblhwq:1,2012-09-01T10:45:00Z,26.0257,-81.7332,0.0,25.7,1111122 
NERRS,ioos:station:NOAA.NERRS:rkblhwq:1,2012-09-01T11:45:00Z,26.0257,-81.7332,0.0,24.8,1111122 
NERRS,ioos:station:NOAA.NERRS:rkblhwq:1,2012-09-01T12:45:00Z,26.0257,-81.7332,0.0,24.9,1111122 
NERRS,ioos:station:NOAA.NERRS:rkblhwq:1,2012-09-01T13:45:00Z,26.0257,-81.7332,0.0,22.2,1111122 
NERRS,ioos:station:NOAA.NERRS:rkblhwq:1,2012-09-01T14:45:00Z,26.0257,-81.7332,0.0,23.4,1111122 
NERRS,ioos:station:NOAA.NERRS:rkblhwq:1,2012-09-01T15:45:00Z,26.0257,-81.7332,0.0,24.3,1111122 
NERRS,ioos:station:NOAA.NERRS:rkblhwq:1,2012-09-01T16:45:00Z,26.0257,-81.7332,0.0,25.7,1111122 
NERRS,ioos:station:NOAA.NERRS:rkblhwq:1,2012-09-01T17:45:00Z,26.0257,-81.7332,0.0,26.4,1111122 
NERRS,ioos:station:NOAA.NERRS:rkblhwq:1,2012-09-01T18:45:00Z,26.0257,-81.7332,0.0,27.7,1111122 
NERRS,ioos:station:NOAA.NERRS:rkblhwq:1,2012-09-01T19:45:00Z,26.0257,-81.7332,0.0,28.0,1111122 
NERRS,ioos:station:NOAA.NERRS:rkblhwq:1,2012-09-01T20:45:00Z,26.0257,-81.7332,0.0,25.7,1111122 
NERRS,ioos:station:NOAA.NERRS:rkblhwq:1,2012-09-01T21:45:00Z,26.0257,-81.7332,0.0,24.5,1111122 
NERRS,ioos:station:NOAA.NERRS:rkblhwq:1,2012-09-01T22:45:00Z,26.0257,-81.7332,0.0,24.6,1111122 
NERRS,ioos:station:NOAA.NERRS:rkblhwq:1,2012-09-01T23:45:00Z,26.0257,-81.7332,0.0,23.6,1111122 
NERRS,ioos:station:NOAA.NERRS:rkblhwq:1,2012-09-02T00:45:00Z,26.0257,-81.7332,0.0,23.0,1111122 
NERRS,ioos:station:NOAA.NERRS:rkblhwq:1,2012-09-02T01:45:00Z,26.0257,-81.7332,0.0,22.9,1111122 
NERRS,ioos:station:NOAA.NERRS:rkblhwq:1,2012-09-02T02:45:00Z,26.0257,-81.7332,0.0,25.4,1111122 
NERRS,ioos:station:NOAA.NERRS:rkblhwq:1,2012-09-02T03:45:00Z,26.0257,-81.7332,0.0,24.2,1111122 
NERRS,ioos:station:NOAA.NERRS:rkblhwq:1,2012-09-02T04:45:00Z,26.0257,-81.7332,0.0,25.1,1111122 
NERRS,ioos:station:NOAA.NERRS:rkblhwq:1,2012-09-02T05:45:00Z,26.0257,-81.7332,0.0,26.4,1111122 
NERRS,ioos:station:NOAA.NERRS:rkblhwq:1,2012-09-02T06:45:00Z,26.0257,-81.7332,0.0,27.1,1111122 
NERRS,ioos:station:NOAA.NERRS:rkblhwq:1,2012-09-02T07:45:00Z,26.0257,-81.7332,0.0,27.6,1111122 
NERRS,ioos:station:NOAA.NERRS:rkblhwq:1,2012-09-02T08:45:00Z,26.0257,-81.7332,0.0,26.6,1111122 
NERRS,ioos:station:NOAA.NERRS:rkblhwq:1,2012-09-02T09:45:00Z,26.0257,-81.7332,0.0,26.5,1111122 
NERRS,ioos:station:NOAA.NERRS:rkblhwq:1,2012-09-02T10:45:00Z,26.0257,-81.7332,0.0,25.6,1111122 
NERRS,ioos:station:NOAA.NERRS:rkblhwq:1,2012-09-02T11:45:00Z,26.0257,-81.7332,0.0,24.0,1111122 
NERRS,ioos:station:NOAA.NERRS:rkblhwq:1,2012-09-02T12:45:00Z,26.0257,-81.7332,0.0,23.8,1111122 
NERRS,ioos:station:NOAA.NERRS:rkblhwq:1,2012-09-02T13:45:00Z,26.0257,-81.7332,0.0,23.1,1111122 
NERRS,ioos:station:NOAA.NERRS:rkblhwq:1,2012-09-02T14:45:00Z,26.0257,-81.7332,0.0,24.8,1111122 
NERRS,ioos:station:NOAA.NERRS:rkblhwq:1,2012-09-02T15:45:00Z,26.0257,-81.7332,0.0,24.2,1111122 
NERRS,ioos:station:NOAA.NERRS:rkblhwq:1,2012-09-02T16:45:00Z,26.0257,-81.7332,0.0,25.5,1111122 
NERRS,ioos:station:NOAA.NERRS:rkblhwq:1,2012-09-02T17:45:00Z,26.0257,-81.7332,0.0,26.4,1111122 
NERRS,ioos:station:NOAA.NERRS:rkblhwq:1,2012-09-02T18:45:00Z,26.0257,-81.7332,0.0,27.5,1111122 
NERRS,ioos:station:NOAA.NERRS:rkblhwq:1,2012-09-02T19:45:00Z,26.0257,-81.7332,0.0,28.9,1111122 
NERRS,ioos:station:NOAA.NERRS:rkblhwq:1,2012-09-02T20:45:00Z,26.0257,-81.7332,0.0,28.7,1111122 
NERRS,ioos:station:NOAA.NERRS:rkblhwq:1,2012-09-02T21:45:00Z,26.0257,-81.7332,0.0,26.4,1111122 
NERRS,ioos:station:NOAA.NERRS:rkblhwq:1,2012-09-02T22:45:00Z,26.0257,-81.7332,0.0,26.4,1111122 
NERRS,ioos:station:NOAA.NERRS:rkblhwq:1,2012-09-02T23:45:00Z,26.0257,-81.7332,0.0,25.1,1111122 
NERRS,ioos:station:NOAA.NERRS:rkblhwq:1,2012-09-03T00:45:00Z,26.0257,-81.7332,0.0,25.1,1111122 
NERRS,ioos:station:NOAA.NERRS:rkblhwq:1,2012-09-03T01:45:00Z,26.0257,-81.7332,0.0,24.7,1111122 
NERRS,ioos:station:NOAA.NERRS:rkblhwq:1,2012-09-03T02:45:00Z,26.0257,-81.7332,0.0,24.3,1111122 
NERRS,ioos:station:NOAA.NERRS:rkblhwq:1,2012-09-03T03:45:00Z,26.0257,-81.7332,0.0,25.7,1111122 
NERRS,ioos:station:NOAA.NERRS:rkblhwq:1,2012-09-03T04:45:00Z,26.0257,-81.7332,0.0,25.9,1111122 
NERRS,ioos:station:NOAA.NERRS:rkblhwq:1,2012-09-03T05:45:00Z,26.0257,-81.7332,0.0,26.5,1111122 
NERRS,ioos:station:NOAA.NERRS:rkblhwq:1,2012-09-03T06:45:00Z,26.0257,-81.7332,0.0,27.7,1111122 
NERRS,ioos:station:NOAA.NERRS:rkblhwq:1,2012-09-03T07:45:00Z,26.0257,-81.7332,0.0,28.5,1111122 
NERRS,ioos:station:NOAA.NERRS:rkblhwq:1,2012-09-03T08:45:00Z,26.0257,-81.7332,0.0,27.4,1111122 
NERRS,ioos:station:NOAA.NERRS:rkblhwq:1,2012-09-03T09:45:00Z,26.0257,-81.7332,0.0,28.1,1111122 
NERRS,ioos:station:NOAA.NERRS:rkblhwq:1,2012-09-03T10:45:00Z,26.0257,-81.7332,0.0,27.6,1111122 
NERRS,ioos:station:NOAA.NERRS:rkblhwq:1,2012-09-03T11:45:00Z,26.0257,-81.7332,0.0,26.7,1111122 
NERRS,ioos:station:NOAA.NERRS:rkblhwq:1,2012-09-03T12:45:00Z,26.0257,-81.7332,0.0,26.8,1111122 
NERRS,ioos:station:NOAA.NERRS:rkblhwq:1,2012-09-03T13:45:00Z,26.0257,-81.7332,0.0,24.7,1111122 
NERRS,ioos:station:NOAA.NERRS:rkblhwq:1,2012-09-03T14:45:00Z,26.0257,-81.7332,0.0,23.8,1111122 
NERRS,ioos:station:NOAA.NERRS:rkblhwq:1,2012-09-03T15:45:00Z,26.0257,-81.7332,0.0,25.8,1111122 
NERRS,ioos:station:NOAA.NERRS:rkblhwq:1,2012-09-03T16:45:00Z,26.0257,-81.7332,0.0,25.6,1111122 
NERRS,ioos:station:NOAA.NERRS:rkblhwq:1,2012-09-03T17:45:00Z,26.0257,-81.7332,0.0,26.5,1111122 
NERRS,ioos:station:NOAA.NERRS:rkblhwq:1,2012-09-03T18:45:00Z,26.0257,-81.7332,0.0,27.1,1111122 
NERRS,ioos:station:NOAA.NERRS:rkblhwq:1,2012-09-03T19:45:00Z,26.0257,-81.7332,0.0,28.2,1111122 
NERRS,ioos:station:NOAA.NERRS:rkblhwq:1,2012-09-03T20:45:00Z,26.0257,-81.7332,0.0,28.3,1111122 
NERRS,ioos:station:NOAA.NERRS:rkblhwq:1,2012-09-03T21:45:00Z,26.0257,-81.7332,0.0,28.3,1111122 
NERRS,ioos:station:NOAA.NERRS:rkblhwq:1,2012-09-03T22:45:00Z,26.0257,-81.7332,0.0,27.7,1111122 
NERRS,ioos:station:NOAA.NERRS:rkblhwq:1,2012-09-03T23:45:00Z,26.0257,-81.7332,0.0,27.5,1111122 
NERRS,ioos:station:NOAA.NERRS:rkblhwq:1,2012-09-04T00:45:00Z,26.0257,-81.7332,0.0,27.0,1111122 
NERRS,ioos:station:NOAA.NERRS:rkblhwq:1,2012-09-04T01:45:00Z,26.0257,-81.7332,0.0,25.9,1111122 
NERRS,ioos:station:NOAA.NERRS:rkblhwq:1,2012-09-04T02:45:00Z,26.0257,-81.7332,0.0,25.4,1111122 
NERRS,ioos:station:NOAA.NERRS:rkblhwq:1,2012-09-04T03:45:00Z,26.0257,-81.7332,0.0,25.8,1111122 
NERRS,ioos:station:NOAA.NERRS:rkblhwq:1,2012-09-04T04:45:00Z,26.0257,-81.7332,0.0,26.2,1111122 
NERRS,ioos:station:NOAA.NERRS:rkblhwq:1,2012-09-04T05:45:00Z,26.0257,-81.7332,0.0,26.7,1111122 
NERRS,ioos:station:NOAA.NERRS:rkblhwq:1,2012-09-04T06:45:00Z,26.0257,-81.7332,0.0,27.7,1111122 
NERRS,ioos:station:NOAA.NERRS:rkblhwq:1,2012-09-04T07:45:00Z,26.0257,-81.7332,0.0,28.6,1111122 
NERRS,ioos:station:NOAA.NERRS:rkblhwq:1,2012-09-04T08:45:00Z,26.0257,-81.7332,0.0,28.9,1111122 
NERRS,ioos:station:NOAA.NERRS:rkblhwq:1,2012-09-04T09:45:00Z,26.0257,-81.7332,0.0,28.6,1111122 
NERRS,ioos:station:NOAA.NERRS:rkblhwq:1,2012-09-04T10:45:00Z,26.0257,-81.7332,0.0,28.4,1111122 
NERRS,ioos:station:NOAA.NERRS:rkblhwq:1,2012-09-04T11:45:00Z,26.0257,-81.7332,0.0,28.1,1111122 
NERRS,ioos:station:NOAA.NERRS:rkblhwq:1,2012-09-04T12:45:00Z,26.0257,-81.7332,0.0,27.3,1111122 
NERRS,ioos:station:NOAA.NERRS:rkblhwq:1,2012-09-04T13:45:00Z,26.0257,-81.7332,0.0,26.7,1111122 
NERRS,ioos:station:NOAA.NERRS:rkblhwq:1,2012-09-04T14:45:00Z,26.0257,-81.7332,0.0,27.3,1111122 
NERRS,ioos:station:NOAA.NERRS:rkblhwq:1,2012-09-04T15:45:00Z,26.0257,-81.7332,0.0,24.4,1111122 
NERRS,ioos:station:NOAA.NERRS:rkblhwq:1,2012-09-04T16:45:00Z,26.0257,-81.7332,0.0,25.7,1111122 
NERRS,ioos:station:NOAA.NERRS:rkblhwq:1,2012-09-04T17:45:00Z,26.0257,-81.7332,0.0,26.8,1111122 
NERRS,ioos:station:NOAA.NERRS:rkblhwq:1,2012-09-04T18:45:00Z,26.0257,-81.7332,0.0,27.3,1111122 
NERRS,ioos:station:NOAA.NERRS:rkblhwq:1,2012-09-04T19:45:00Z,26.0257,-81.7332,0.0,27.8,1111122 
NERRS,ioos:station:NOAA.NERRS:rkblhwq:1,2012-09-04T20:45:00Z,26.0257,-81.7332,0.0,28.5,1111122 
NERRS,ioos:station:NOAA.NERRS:rkblhwq:1,2012-09-04T21:45:00Z,26.0257,-81.7332,0.0,28.4,1111122 
NERRS,ioos:station:NOAA.NERRS:rkblhwq:1,2012-09-04T22:45:00Z,26.0257,-81.7332,0.0,28.4,1111122 
NERRS,ioos:station:NOAA.NERRS:rkblhwq:1,2012-09-04T23:45:00Z,26.0257,-81.7332,0.0,28.1,1111122 
NERRS,ioos:station:NOAA.NERRS:rkblhwq:1,2012-09-05T00:45:00Z,26.0257,-81.7332,0.0,27.9,1111122 
NERRS,ioos:station:NOAA.NERRS:rkblhwq:1,2012-09-05T01:45:00Z,26.0257,-81.7332,0.0,27.6,1111122 
NERRS,ioos:station:NOAA.NERRS:rkblhwq:1,2012-09-05T02:45:00Z,26.0257,-81.7332,0.0,26.0,1111122 
NERRS,ioos:station:NOAA.NERRS:rkblhwq:1,2012-09-05T03:45:00Z,26.0257,-81.7332,0.0,26.6,1111122 
NERRS,ioos:station:NOAA.NERRS:rkblhwq:1,2012-09-05T04:45:00Z,26.0257,-81.7332,0.0,27.4,1111122 
NERRS,ioos:station:NOAA.NERRS:rkblhwq:1,2012-09-05T05:45:00Z,26.0257,-81.7332,0.0,27.4,1111122 
NERRS,ioos:station:NOAA.NERRS:rkblhwq:1,2012-09-05T06:45:00Z,26.0257,-81.7332,0.0,28.3,1111122 
NERRS,ioos:station:NOAA.NERRS:rkblhwq:1,2012-09-05T07:45:00Z,26.0257,-81.7332,0.0,29.0,1111122 
NERRS,ioos:station:NOAA.NERRS:rkblhwq:1,2012-09-05T08:45:00Z,26.0257,-81.7332,0.0,29.9,1111122 
NERRS,ioos:station:NOAA.NERRS:rkblhwq:1,2012-09-05T09:45:00Z,26.0257,-81.7332,0.0,29.0,1111122 
NERRS,ioos:station:NOAA.NERRS:rkblhwq:1,2012-09-05T10:45:00Z,26.0257,-81.7332,0.0,28.9,1111122 
NERRS,ioos:station:NOAA.NERRS:rkblhwq:1,2012-09-05T11:45:00Z,26.0257,-81.7332,0.0,29.2,1111122 
NERRS,ioos:station:NOAA.NERRS:rkblhwq:1,2012-09-05T12:45:00Z,26.0257,-81.7332,0.0,28.4,1111122 
NERRS,ioos:station:NOAA.NERRS:rkblhwq:1,2012-09-05T13:45:00Z,26.0257,-81.7332,0.0,26.9,1111122 
NERRS,ioos:station:NOAA.NERRS:rkblhwq:1,2012-09-05T14:45:00Z,26.0257,-81.7332,0.0,26.7,1111122 
NERRS,ioos:station:NOAA.NERRS:rkblhwq:1,2012-09-05T15:45:00Z,26.0257,-81.7332,0.0,28.0,1111122 
NERRS,ioos:station:NOAA.NERRS:rkblhwq:1,2012-09-05T16:45:00Z,26.0257,-81.7332,0.0,26.8,1111122 
NERRS,ioos:station:NOAA.NERRS:rkblhwq:1,2012-09-05T17:45:00Z,26.0257,-81.7332,0.0,26.6,1111122 
NERRS,ioos:station:NOAA.NERRS:rkblhwq:1,2012-09-05T18:45:00Z,26.0257,-81.7332,0.0,27.4,1111122 
NERRS,ioos:station:NOAA.NERRS:rkblhwq:1,2012-09-05T19:45:00Z,26.0257,-81.7332,0.0,27.8,1111122 
NERRS,ioos:station:NOAA.NERRS:rkblhwq:1,2012-09-05T20:45:00Z,26.0257,-81.7332,0.0,28.3,1111122 
NERRS,ioos:station:NOAA.NERRS:rkblhwq:1,2012-09-05T21:45:00Z,26.0257,-81.7332,0.0,28.5,1111122 
NERRS,ioos:station:NOAA.NERRS:rkblhwq:1,2012-09-05T22:45:00Z,26.0257,-81.7332,0.0,28.6,1111122 
NERRS,ioos:station:NOAA.NERRS:rkblhwq:1,2012-09-05T23:45:00Z,26.0257,-81.7332,0.0,28.4,1111122 
NERRS,ioos:station:NOAA.NERRS:rkblhwq:1,2012-09-06T00:45:00Z,26.0257,-81.7332,0.0,28.1,1111122 
NERRS,ioos:station:NOAA.NERRS:rkblhwq:1,2012-09-06T01:45:00Z,26.0257,-81.7332,0.0,27.1,1111122 
NERRS,ioos:station:NOAA.NERRS:rkblhwq:1,2012-09-06T02:45:00Z,26.0257,-81.7332,0.0,26.7,1111122 
NERRS,ioos:station:NOAA.NERRS:rkblhwq:1,2012-09-06T03:45:00Z,26.0257,-81.7332,0.0,26.4,1111122 
NERRS,ioos:station:NOAA.NERRS:rkblhwq:1,2012-09-06T04:45:00Z,26.0257,-81.7332,0.0,26.8,1111122 
NERRS,ioos:station:NOAA.NERRS:rkblhwq:1,2012-09-06T05:45:00Z,26.0257,-81.7332,0.0,27.1,1111122 
NERRS,ioos:station:NOAA.NERRS:rkblhwq:1,2012-09-06T06:45:00Z,26.0257,-81.7332,0.0,27.7,1111122 
NERRS,ioos:station:NOAA.NERRS:rkblhwq:1,2012-09-06T07:45:00Z,26.0257,-81.7332,0.0,28.2,1111122 
NERRS,ioos:station:NOAA.NERRS:rkblhwq:1,2012-09-06T08:45:00Z,26.0257,-81.7332,0.0,29.0,1111122 
NERRS,ioos:station:NOAA.NERRS:rkblhwq:1,2012-09-06T09:45:00Z,26.0257,-81.7332,0.0,29.3,1111122 
NERRS,ioos:station:NOAA.NERRS:rkblhwq:1,2012-09-06T10:45:00Z,26.0257,-81.7332,0.0,28.6,1111122 
NERRS,ioos:station:NOAA.NERRS:rkblhwq:1,2012-09-06T11:45:00Z,26.0257,-81.7332,0.0,28.7,1111122 
NERRS,ioos:station:NOAA.NERRS:rkblhwq:1,2012-09-06T12:45:00Z,26.0257,-81.7332,0.0,28.4,1111122 
NERRS,ioos:station:NOAA.NERRS:rkblhwq:1,2012-09-06T13:45:00Z,26.0257,-81.7332,0.0,28.5,1111122 
NERRS,ioos:station:NOAA.NERRS:rkblhwq:1,2012-09-06T14:45:00Z,26.0257,-81.7332,0.0,28.1,1111122 
NERRS,ioos:station:NOAA.NERRS:rkblhwq:1,2012-09-06T15:45:00Z,26.0257,-81.7332,0.0,27.9,1111122 
NERRS,ioos:station:NOAA.NERRS:rkblhwq:1,2012-09-06T16:45:00Z,26.0257,-81.7332,0.0,28.0,1111122 
NERRS,ioos:station:NOAA.NERRS:rkblhwq:1,2012-09-06T17:45:00Z,26.0257,-81.7332,0.0,26.1,1111122 
NERRS,ioos:station:NOAA.NERRS:rkblhwq:1,2012-09-06T18:45:00Z,26.0257,-81.7332,0.0,27.5,1111122 
NERRS,ioos:station:NOAA.NERRS:rkblhwq:1,2012-09-06T19:45:00Z,26.0257,-81.7332,0.0,27.9,1111122 
NERRS,ioos:station:NOAA.NERRS:rkblhwq:1,2012-09-06T20:45:00Z,26.0257,-81.7332,0.0,28.0,1111122 
NERRS,ioos:station:NOAA.NERRS:rkblhwq:1,2012-09-06T21:45:00Z,26.0257,-81.7332,0.0,28.4,1111122 
NERRS,ioos:station:NOAA.NERRS:rkblhwq:1,2012-09-06T22:45:00Z,26.0257,-81.7332,0.0,28.4,1111122 
NERRS,ioos:station:NOAA.NERRS:rkblhwq:1,2012-09-06T23:45:00Z,26.0257,-81.7332,0.0,28.3,1111122 
NERRS,ioos:station:NOAA.NERRS:rkblhwq:1,2012-09-07T00:45:00Z,26.0257,-81.7332,0.0,27.6,1111122 
NERRS,ioos:station:NOAA.NERRS:rkblhwq:1,2012-09-07T01:45:00Z,26.0257,-81.7332,0.0,26.3,1111122 
NERRS,ioos:station:NOAA.NERRS:rkblhwq:1,2012-09-07T02:45:00Z,26.0257,-81.7332,0.0,25.7,1111122 
NERRS,ioos:station:NOAA.NERRS:rkblhwq:1,2012-09-07T03:45:00Z,26.0257,-81.7332,0.0,26.7,1111122 
NERRS,ioos:station:NOAA.NERRS:rkblhwq:1,2012-09-07T04:45:00Z,26.0257,-81.7332,0.0,26.7,1111122 
NERRS,ioos:station:NOAA.NERRS:rkblhwq:1,2012-09-07T05:45:00Z,26.0257,-81.7332,0.0,28.7,1111122 
NERRS,ioos:station:NOAA.NERRS:rkblhwq:1,2012-09-07T06:45:00Z,26.0257,-81.7332,0.0,28.3,1111122 
NERRS,ioos:station:NOAA.NERRS:rkblhwq:1,2012-09-07T07:45:00Z,26.0257,-81.7332,0.0,28.5,1111122 
NERRS,ioos:station:NOAA.NERRS:rkblhwq:1,2012-09-07T08:45:00Z,26.0257,-81.7332,0.0,29.0,1111122 
NERRS,ioos:station:NOAA.NERRS:rkblhwq:1,2012-09-07T09:45:00Z,26.0257,-81.7332,0.0,29.4,1111122 
NERRS,ioos:station:NOAA.NERRS:rkblhwq:1,2012-09-07T10:45:00Z,26.0257,-81.7332,0.0,29.6,1111122 
NERRS,ioos:station:NOAA.NERRS:rkblhwq:1,2012-09-07T11:45:00Z,26.0257,-81.7332,0.0,29.1,1111122 
NERRS,ioos:station:NOAA.NERRS:rkblhwq:1,2012-09-07T12:45:00Z,26.0257,-81.7332,0.0,29.1,1111122 
NERRS,ioos:station:NOAA.NERRS:rkblhwq:1,2012-09-07T13:45:00Z,26.0257,-81.7332,0.0,28.7,1111122 
NERRS,ioos:station:NOAA.NERRS:rkblhwq:1,2012-09-07T14:45:00Z,26.0257,-81.7332,0.0,28.8,1111122 
NERRS,ioos:station:NOAA.NERRS:rkblhwq:1,2012-09-07T15:45:00Z,26.0257,-81.7332,0.0,28.4,1111122 
NERRS,ioos:station:NOAA.NERRS:rkblhwq:1,2012-09-07T16:45:00Z,26.0257,-81.7332,0.0,27.7,1111122 
NERRS,ioos:station:NOAA.NERRS:rkblhwq:1,2012-09-07T17:45:00Z,26.0257,-81.7332,0.0,26.8,1111122 
NERRS,ioos:station:NOAA.NERRS:rkblhwq:1,2012-09-07T18:45:00Z,26.0257,-81.7332,0.0,27.1,1111122 
NERRS,ioos:station:NOAA.NERRS:rkblhwq:1,2012-09-07T19:45:00Z,26.0257,-81.7332,0.0,27.4,1111122 
NERRS,ioos:station:NOAA.NERRS:rkblhwq:1,2012-09-07T20:45:00Z,26.0257,-81.7332,0.0,27.7,1111122 
NERRS,ioos:station:NOAA.NERRS:rkblhwq:1,2012-09-07T21:45:00Z,26.0257,-81.7332,0.0,28.0,1111122 
NERRS,ioos:station:NOAA.NERRS:rkblhwq:1,2012-09-07T22:45:00Z,26.0257,-81.7332,0.0,28.2,1111122 
NERRS,ioos:station:NOAA.NERRS:rkblhwq:1,2012-09-07T23:45:00Z,26.0257,-81.7332,0.0,28.6,1111122 
NERRS,ioos:station:NOAA.NERRS:rkblhwq:1,2012-09-08T00:45:00Z,26.0257,-81.7332,0.0,28.5,1111122 
NERRS,ioos:station:NOAA.NERRS:rkblhwq:1,2012-09-08T01:45:00Z,26.0257,-81.7332,0.0,28.3,1111122 
NERRS,ioos:station:NOAA.NERRS:rkblhwq:1,2012-09-08T02:45:00Z,26.0257,-81.7332,0.0,27.5,1111122 
NERRS,ioos:station:NOAA.NERRS:rkblhwq:1,2012-09-08T03:45:00Z,26.0257,-81.7332,0.0,28.2,1111122 
NERRS,ioos:station:NOAA.NERRS:rkblhwq:1,2012-09-08T04:45:00Z,26.0257,-81.7332,0.0,28.1,1111122 
NERRS,ioos:station:NOAA.NERRS:rkblhwq:1,2012-09-08T05:45:00Z,26.0257,-81.7332,0.0,28.1,1111122 
NERRS,ioos:station:NOAA.NERRS:rkblhwq:1,2012-09-08T06:45:00Z,26.0257,-81.7332,0.0,28.5,1111122 
NERRS,ioos:station:NOAA.NERRS:rkblhwq:1,2012-09-08T07:45:00Z,26.0257,-81.7332,0.0,28.5,1111122 
NERRS,ioos:station:NOAA.NERRS:rkblhwq:1,2012-09-08T08:45:00Z,26.0257,-81.7332,0.0,28.7,1111122 
NERRS,ioos:station:NOAA.NERRS:rkblhwq:1,2012-09-08T09:45:00Z,26.0257,-81.7332,0.0,29.7,1111122 
NERRS,ioos:station:NOAA.NERRS:rkblhwq:1,2012-09-08T10:45:00Z,26.0257,-81.7332,0.0,29.7,1111122 
NERRS,ioos:station:NOAA.NERRS:rkblhwq:1,2012-09-08T11:45:00Z,26.0257,-81.7332,0.0,29.9,1111122 
NERRS,ioos:station:NOAA.NERRS:rkblhwq:1,2012-09-08T12:45:00Z,26.0257,-81.7332,0.0,28.9,1111122 
NERRS,ioos:station:NOAA.NERRS:rkblhwq:1,2012-09-08T13:45:00Z,26.0257,-81.7332,0.0,28.6,1111122 
NERRS,ioos:station:NOAA.NERRS:rkblhwq:1,2012-09-08T14:45:00Z,26.0257,-81.7332,0.0,29.1,1111122 
NERRS,ioos:station:NOAA.NERRS:rkblhwq:1,2012-09-08T15:45:00Z,26.0257,-81.7332,0.0,28.6,1111122 
NERRS,ioos:station:NOAA.NERRS:rkblhwq:1,2012-09-08T16:45:00Z,26.0257,-81.7332,0.0,28.4,1111122 
NERRS,ioos:station:NOAA.NERRS:rkblhwq:1,2012-09-08T17:45:00Z,26.0257,-81.7332,0.0,28.0,1111122 
NERRS,ioos:station:NOAA.NERRS:rkblhwq:1,2012-09-08T18:45:00Z,26.0257,-81.7332,0.0,28.2,1111122 
NERRS,ioos:station:NOAA.NERRS:rkblhwq:1,2012-09-08T19:45:00Z,26.0257,-81.7332,0.0,26.7,1111122 
NERRS,ioos:station:NOAA.NERRS:rkblhwq:1,2012-09-08T20:45:00Z,26.0257,-81.7332,0.0,27.0,1111122 
NERRS,ioos:station:NOAA.NERRS:rkblhwq:1,2012-09-08T21:45:00Z,26.0257,-81.7332,0.0,27.3,1111122 
NERRS,ioos:station:NOAA.NERRS:rkblhwq:1,2012-09-08T22:45:00Z,26.0257,-81.7332,0.0,27.8,1111122 
NERRS,ioos:station:NOAA.NERRS:rkblhwq:1,2012-09-08T23:45:00Z,26.0257,-81.7332,0.0,28.4,1111122 
NERRS,ioos:station:NOAA.NERRS:rkblhwq:1,2012-09-09T00:45:00Z,26.0257,-81.7332,0.0,28.6,1111122 
NERRS,ioos:station:NOAA.NERRS:rkblhwq:1,2012-09-09T01:45:00Z,26.0257,-81.7332,0.0,28.3,1111122 
NERRS,ioos:station:NOAA.NERRS:rkblhwq:1,2012-09-09T02:45:00Z,26.0257,-81.7332,0.0,28.4,1111122 
NERRS,ioos:station:NOAA.NERRS:rkblhwq:1,2012-09-09T03:45:00Z,26.0257,-81.7332,0.0,28.2,1111122 
NERRS,ioos:station:NOAA.NERRS:rkblhwq:1,2012-09-09T04:45:00Z,26.0257,-81.7332,0.0,27.7,1111122 
NERRS,ioos:station:NOAA.NERRS:rkblhwq:1,2012-09-09T05:45:00Z,26.0257,-81.7332,0.0,28.1,1111122 
NERRS,ioos:station:NOAA.NERRS:rkblhwq:1,2012-09-09T06:45:00Z,26.0257,-81.7332,0.0,27.7,1111122 
NERRS,ioos:station:NOAA.NERRS:rkblhwq:1,2012-09-09T07:45:00Z,26.0257,-81.7332,0.0,28.3,1111122 
NERRS,ioos:station:NOAA.NERRS:rkblhwq:1,2012-09-09T08:45:00Z,26.0257,-81.7332,0.0,28.6,1111122 
NERRS,ioos:station:NOAA.NERRS:rkblhwq:1,2012-09-09T09:45:00Z,26.0257,-81.7332,0.0,28.7,1111122 
NERRS,ioos:station:NOAA.NERRS:rkblhwq:1,2012-09-09T10:45:00Z,26.0257,-81.7332,0.0,28.9,1111122 
NERRS,ioos:station:NOAA.NERRS:rkblhwq:1,2012-09-09T11:45:00Z,26.0257,-81.7332,0.0,28.7,1111122 
NERRS,ioos:station:NOAA.NERRS:rkblhwq:1,2012-09-09T12:45:00Z,26.0257,-81.7332,0.0,28.8,1111122 
NERRS,ioos:station:NOAA.NERRS:rkblhwq:1,2012-09-09T13:45:00Z,26.0257,-81.7332,0.0,28.6,1111122 
NERRS,ioos:station:NOAA.NERRS:rkblhwq:1,2012-09-09T14:45:00Z,26.0257,-81.7332,0.0,28.4,1111122 
NERRS,ioos:station:NOAA.NERRS:rkblhwq:1,2012-09-09T15:45:00Z,26.0257,-81.7332,0.0,28.1,1111122 
NERRS,ioos:station:NOAA.NERRS:rkblhwq:1,2012-09-09T16:45:00Z,26.0257,-81.7332,0.0,27.8,1111122 
NERRS,ioos:station:NOAA.NERRS:rkblhwq:1,2012-09-09T17:45:00Z,26.0257,-81.7332,0.0,27.7,1111122 
NERRS,ioos:station:NOAA.NERRS:rkblhwq:1,2012-09-09T18:45:00Z,26.0257,-81.7332,0.0,27.2,1111122 
NERRS,ioos:station:NOAA.NERRS:rkblhwq:1,2012-09-09T19:45:00Z,26.0257,-81.7332,0.0,27.0,1111122 
NERRS,ioos:station:NOAA.NERRS:rkblhwq:1,2012-09-09T20:45:00Z,26.0257,-81.7332,0.0,26.6,1111122 
NERRS,ioos:station:NOAA.NERRS:rkblhwq:1,2012-09-09T21:45:00Z,26.0257,-81.7332,0.0,27.1,1111122 
NERRS,ioos:station:NOAA.NERRS:rkblhwq:1,2012-09-09T22:45:00Z,26.0257,-81.7332,0.0,27.4,1111122 
NERRS,ioos:station:NOAA.NERRS:rkblhwq:1,2012-09-09T23:45:00Z,26.0257,-81.7332,0.0,27.7,1111122 
NERRS,ioos:station:NOAA.NERRS:rkblhwq:1,2012-09-10T00:45:00Z,26.0257,-81.7332,0.0,28.5,1111122 
NERRS,ioos:station:NOAA.NERRS:rkblhwq:1,2012-09-10T01:45:00Z,26.0257,-81.7332,0.0,28.9,1111122 
NERRS,ioos:station:NOAA.NERRS:rkblhwq:1,2012-09-10T02:45:00Z,26.0257,-81.7332,0.0,29.0,1111122 
NERRS,ioos:station:NOAA.NERRS:rkblhwq:1,2012-09-10T03:45:00Z,26.0257,-81.7332,0.0,28.7,1111122 
NERRS,ioos:station:NOAA.NERRS:rkblhwq:1,2012-09-10T04:45:00Z,26.0257,-81.7332,0.0,28.4,1111122 
NERRS,ioos:station:NOAA.NERRS:rkblhwq:1,2012-09-10T05:45:00Z,26.0257,-81.7332,0.0,28.2,1111122 
NERRS,ioos:station:NOAA.NERRS:rkblhwq:1,2012-09-10T06:45:00Z,26.0257,-81.7332,0.0,28.2,1111122 
NERRS,ioos:station:NOAA.NERRS:rkblhwq:1,2012-09-10T07:45:00Z,26.0257,-81.7332,0.0,27.8,1111122 
NERRS,ioos:station:NOAA.NERRS:rkblhwq:1,2012-09-10T08:45:00Z,26.0257,-81.7332,0.0,28.0,1111122 
NERRS,ioos:station:NOAA.NERRS:rkblhwq:1,2012-09-10T09:45:00Z,26.0257,-81.7332,0.0,28.1,1111122 
NERRS,ioos:station:NOAA.NERRS:rkblhwq:1,2012-09-10T10:45:00Z,26.0257,-81.7332,0.0,28.3,1111122 
NERRS,ioos:station:NOAA.NERRS:rkblhwq:1,2012-09-10T11:45:00Z,26.0257,-81.7332,0.0,28.5,1111122 
NERRS,ioos:station:NOAA.NERRS:rkblhwq:1,2012-09-10T12:45:00Z,26.0257,-81.7332,0.0,28.6,1111122 
NERRS,ioos:station:NOAA.NERRS:rkblhwq:1,2012-09-10T13:45:00Z,26.0257,-81.7332,0.0,28.4,1111122 
NERRS,ioos:station:NOAA.NERRS:rkblhwq:1,2012-09-10T14:45:00Z,26.0257,-81.7332,0.0,28.4,1111122 
NERRS,ioos:station:NOAA.NERRS:rkblhwq:1,2012-09-10T15:45:00Z,26.0257,-81.7332,0.0,28.3,1111122 
NERRS,ioos:station:NOAA.NERRS:rkblhwq:1,2012-09-10T16:45:00Z,26.0257,-81.7332,0.0,28.1,1111122 
NERRS,ioos:station:NOAA.NERRS:rkblhwq:1,2012-09-10T18:45:00Z,26.0257,-81.7332,0.0,26.8,1111122 
NERRS,ioos:station:NOAA.NERRS:rkblhwq:1,2012-09-10T19:45:00Z,26.0257,-81.7332,0.0,26.3,1111122 
NERRS,ioos:station:NOAA.NERRS:rkblhwq:1,2012-09-10T20:45:00Z,26.0257,-81.7332,0.0,25.7,1111122 
NERRS,ioos:station:NOAA.NERRS:rkblhwq:1,2012-09-10T21:45:00Z,26.0257,-81.7332,0.0,26.2,1111122 
NERRS,ioos:station:NOAA.NERRS:rkblhwq:1,2012-09-10T22:45:00Z,26.0257,-81.7332,0.0,25.8,1111122 
NERRS,ioos:station:NOAA.NERRS:rkblhwq:1,2012-09-10T23:45:00Z,26.0257,-81.7332,0.0,26.0,1111122 
NERRS,ioos:station:NOAA.NERRS:rkblhwq:1,2012-09-11T00:45:00Z,26.0257,-81.7332,0.0,26.3,1111122 
NERRS,ioos:station:NOAA.NERRS:rkblhwq:1,2012-09-11T01:45:00Z,26.0257,-81.7332,0.0,27.7,1111122 
NERRS,ioos:station:NOAA.NERRS:rkblhwq:1,2012-09-11T02:45:00Z,26.0257,-81.7332,0.0,27.9,1111122 
NERRS,ioos:station:NOAA.NERRS:rkblhwq:1,2012-09-11T03:45:00Z,26.0257,-81.7332,0.0,28.3,1111122 
NERRS,ioos:station:NOAA.NERRS:rkblhwq:1,2012-09-11T04:45:00Z,26.0257,-81.7332,0.0,28.6,1111122 
NERRS,ioos:station:NOAA.NERRS:rkblhwq:1,2012-09-11T05:45:00Z,26.0257,-81.7332,0.0,27.7,1111122 
NERRS,ioos:station:NOAA.NERRS:rkblhwq:1,2012-09-11T06:45:00Z,26.0257,-81.7332,0.0,27.5,1111122 
NERRS,ioos:station:NOAA.NERRS:rkblhwq:1,2012-09-11T07:45:00Z,26.0257,-81.7332,0.0,26.1,1111122 
NERRS,ioos:station:NOAA.NERRS:rkblhwq:1,2012-09-11T08:45:00Z,26.0257,-81.7332,0.0,27.1,1111122 
NERRS,ioos:station:NOAA.NERRS:rkblhwq:1,2012-09-11T09:45:00Z,26.0257,-81.7332,0.0,28.3,1111122 